This is the latest recevied weather packets stored in our database for station/object N5COP-13. If no packets are shown the sender has not sent any weather packets the latest 10 day(s).
| Time | Temp. | Humidity | Pressure | Rain* | Wind** | Luminosity | Snow |
|---|---|---|---|---|---|---|---|
| 1777787002 | 8.89° C | 47% | 1021 hPa | 0 mm | - | 0 W/m² | - |
| 1777786700 | 8.89° C | 47% | 1020.7 hPa | 0 mm | - | 0 W/m² | - |
| 1777786398 | 8.89° C | 46% | 1020.9 hPa | 0 mm | - | 0 W/m² | - |
| 1777786094 | 10° C | 44% | 1020.9 hPa | 0 mm | - | 0 W/m² | - |
| 1777785791 | 10° C | 45% | 1020.8 hPa | 0 mm | - | 0 W/m² | - |
| 1777785486 | 10° C | 45% | 1020.8 hPa | 0 mm | - | 0 W/m² | - |
| 1777785183 | 10° C | 44% | 1020.9 hPa | 0 mm | - | 0 W/m² | - |
| 1777784880 | 10.56° C | 43% | 1020.8 hPa | 0 mm | - | 0 W/m² | - |
| 1777784576 | 10.56° C | 43% | 1020.8 hPa | 0 mm | - | 0 W/m² | - |
| 1777784274 | 11.11° C | 43% | 1020.8 hPa | 0 mm | - | 0 W/m² | - |
| 1777783972 | 11.11° C | 42% | 1020.8 hPa | 0 mm | - | 0 W/m² | - |
| 1777783668 | 11.67° C | 41% | 1020.7 hPa | 0 mm | - | 0 W/m² | - |
| 1777783365 | 11.67° C | 41% | 1020.9 hPa | 0 mm | - | 0 W/m² | - |
| 1777783063 | 11.67° C | 40% | 1020.8 hPa | 0 mm | - | 0 W/m² | - |
| 1777782759 | 11.67° C | 39% | 1020.7 hPa | 0 mm | - | 0 W/m² | - |
| 1777782455 | 12.22° C | 39% | 1020.7 hPa | 0 mm | - | 0 W/m² | - |
| 1777782152 | 12.22° C | 39% | 1020.6 hPa | 0 mm | - | 0 W/m² | - |
| 1777781848 | 12.22° C | 38% | 1020.8 hPa | 0 mm | - | 0 W/m² | - |
| 1777781546 | 12.22° C | 38% | 1020.7 hPa | 0 mm | - | 0 W/m² | - |
| 1777781243 | 12.78° C | 37% | 1020.8 hPa | 0 mm | - | 0 W/m² | - |
| 1777780941 | 12.78° C | 37% | 1020.7 hPa | 0 mm | - | 0 W/m² | - |
| 1777780637 | 12.22° C | 37% | 1020.6 hPa | 0 mm | - | 0 W/m² | - |
| 1777780335 | 11.67° C | 37% | 1020.7 hPa | 0 mm | - | 0 W/m² | - |
| 1777780032 | 11.67° C | 36% | 1020.8 hPa | 0 mm | - | 0 W/m² | - |
| 1777779729 | 11.67° C | 36% | 1020.7 hPa | 0 mm | - | 0 W/m² | - |
* Rain latest hour (hover to see other rain measurements)
** Current wind speed in m/s (hover to see current wind gust speed)